TimeEEST,TemperatureF,Dew PointF,Humidity,Sea Level PressureIn,VisibilityMPH,Wind Direction,Wind SpeedMPH,Gust SpeedMPH,PrecipitationIn,Events,Conditions,WindDirDegrees,DateUTC
12:20 AM,60.8,50.0,68,30.09,-9999.0,North,1.2,-,N/A,,Clear,350,2013-10-10 21:20:00
12:50 AM,60.8,50.0,68,30.09,-9999.0,Calm,Calm,-,N/A,,Clear,0,2013-10-10 21:50:00
1:20 AM,64.4,48.2,56,30.09,-9999.0,Variable,1.2,-,N/A,,Clear,0,2013-10-10 22:20:00
1:50 AM,62.6,48.2,59,30.09,-9999.0,Variable,2.3,-,N/A,,Clear,0,2013-10-10 22:50:00
2:20 AM,60.8,50.0,68,30.09,-9999.0,Calm,Calm,-,N/A,,Clear,0,2013-10-10 23:20:00
2:50 AM,59.0,48.2,67,30.09,-9999.0,Calm,Calm,-,N/A,,Clear,0,2013-10-10 23:50:00
3:00 AM,58,49,62,30.12,6,Calm,Calm,,,,,,2013-10-11 00:00:00
3:20 AM,59.0,48.2,67,30.12,-9999.0,West,3.5,-,N/A,,Clear,260,2013-10-11 00:20:00
3:50 AM,59.0,50.0,72,30.12,-9999.0,SSW,4.6,-,N/A,,Clear,210,2013-10-11 00:50:00
4:20 AM,60.8,51.8,72,30.12,5.0,Variable,1.2,-,N/A,,Unknown,0,2013-10-11 01:20:00
4:50 AM,57.2,48.2,72,30.12,3.7,Calm,Calm,-,N/A,,Unknown,0,2013-10-11 01:50:00
5:20 AM,59.0,50.0,72,30.12,3.7,Variable,1.2,-,N/A,,Unknown,0,2013-10-11 02:20:00
5:50 AM,57.2,50.0,77,30.12,3.7,Calm,Calm,-,N/A,,Unknown,0,2013-10-11 02:50:00
6:20 AM,59.0,51.8,77,30.12,3.7,Variable,2.3,-,N/A,,Unknown,0,2013-10-11 03:20:00
6:50 AM,62.6,55.4,77,30.12,3.7,East,3.5,-,N/A,,Unknown,90,2013-10-11 03:50:00
7:20 AM,60.8,53.6,77,30.15,-9999.0,Variable,2.3,-,N/A,,Mist,0,2013-10-11 04:20:00
7:50 AM,62.6,53.6,72,30.15,-9999.0,East,3.5,-,N/A,,Mist,100,2013-10-11 04:50:00
8:20 AM,62.6,55.4,77,30.15,-9999.0,ESE,4.6,-,N/A,,Mist,110,2013-10-11 05:20:00
8:50 AM,66.2,55.4,68,30.15,3.7,SE,6.9,-,N/A,,Unknown,130,2013-10-11 05:50:00
9:00 AM,67,57,61,30.17,4,SE,6.9,,,,Mist,130,2013-10-11 06:00:00
9:20 AM,68.0,55.4,64,30.15,3.7,SSE,6.9,-,N/A,,Unknown,150,2013-10-11 06:20:00
9:50 AM,68.0,57.2,68,30.18,4.3,South,4.6,-,N/A,,Unknown,180,2013-10-11 06:50:00
10:20 AM,69.8,55.4,60,30.18,-9999.0,South,3.5,-,N/A,,Clear,180,2013-10-11 07:20:00
10:50 AM,68.0,55.4,64,30.18,-9999.0,SSW,5.8,-,N/A,,Clear,200,2013-10-11 07:50:00
11:20 AM,69.8,55.4,60,30.18,-9999.0,SSW,6.9,-,N/A,,Clear,200,2013-10-11 08:20:00
11:50 AM,69.8,55.4,60,30.18,-9999.0,SSW,8.1,-,N/A,,Clear,210,2013-10-11 08:50:00
12:20 PM,69.8,53.6,56,30.18,-9999.0,SSW,6.9,-,N/A,,Clear,210,2013-10-11 09:20:00
12:50 PM,69.8,55.4,60,30.18,-9999.0,SW,8.1,-,N/A,,Clear,220,2013-10-11 09:50:00
1:20 PM,69.8,55.4,60,30.18,-9999.0,SW,8.1,-,N/A,,Clear,220,2013-10-11 10:20:00
1:50 PM,69.8,51.8,53,30.18,-9999.0,SW,6.9,-,N/A,,Clear,220,2013-10-11 10:50:00
2:20 PM,71.6,53.6,53,30.18,-9999.0,SW,6.9,-,N/A,,Clear,230,2013-10-11 11:20:00
2:50 PM,73.4,55.4,53,30.15,-9999.0,WSW,6.9,-,N/A,,Clear,250,2013-10-11 11:50:00
3:00 PM,73,54,40,30.17,6,WSW,6.9,,,,Clear,250,2013-10-11 12:00:00
3:20 PM,73.4,55.4,53,30.15,-9999.0,SW,6.9,-,N/A,,Clear,230,2013-10-11 12:20:00
3:50 PM,71.6,55.4,57,30.15,-9999.0,WSW,6.9,-,N/A,,Clear,240,2013-10-11 12:50:00
4:20 PM,71.6,55.4,57,30.15,-9999.0,SW,8.1,-,N/A,,Clear,230,2013-10-11 13:20:00
4:50 PM,71.6,55.4,57,30.15,-9999.0,WSW,8.1,-,N/A,,Clear,240,2013-10-11 13:50:00
5:20 PM,71.6,57.2,60,30.15,-9999.0,SW,5.8,-,N/A,,Clear,230,2013-10-11 14:20:00
5:50 PM,69.8,55.4,60,30.15,-9999.0,WSW,6.9,-,N/A,,Clear,240,2013-10-11 14:50:00
6:20 PM,69.8,57.2,64,30.15,-9999.0,SW,5.8,-,N/A,,Clear,230,2013-10-11 15:20:00
6:50 PM,68.0,57.2,68,30.15,-9999.0,SW,4.6,-,N/A,,Clear,230,2013-10-11 15:50:00
7:20 PM,66.2,57.2,73,30.18,-9999.0,SSE,3.5,-,N/A,,Clear,160,2013-10-11 16:20:00
7:50 PM,68.0,59.0,73,30.18,-9999.0,SE,5.8,-,N/A,,Clear,130,2013-10-11 16:50:00
8:20 PM,68.0,59.0,73,30.18,-9999.0,SE,4.6,-,N/A,,Clear,130,2013-10-11 17:20:00
8:50 PM,68.0,57.2,68,30.18,-9999.0,SE,5.8,-,N/A,,Clear,140,2013-10-11 17:50:00
9:00 PM,67,58,64,30.19,6,SE,5.8,,,,,140,2013-10-11 18:00:00
9:20 PM,68.0,57.2,68,30.18,-9999.0,SE,4.6,-,N/A,,Clear,130,2013-10-11 18:20:00
9:50 PM,68.0,57.2,68,30.18,-9999.0,ESE,4.6,-,N/A,,Clear,120,2013-10-11 18:50:00
10:20 PM,66.2,57.2,73,30.18,-9999.0,SE,4.6,-,N/A,,Clear,140,2013-10-11 19:20:00
10:50 PM,66.2,57.2,73,30.18,-9999.0,Variable,1.2,-,N/A,,Clear,0,2013-10-11 19:50:00
11:20 PM,68.0,57.2,68,30.18,-9999.0,Variable,2.3,-,N/A,,Clear,0,2013-10-11 20:20:00
11:50 PM,68.0,57.2,68,30.18,-9999.0,ESE,3.5,-,N/A,,Clear,120,2013-10-11 20:50:00